Вернуться в каталог

FENGYUN 1C DEB

АктивенSSO
NORAD 30574·DEBRIS·🇨🇳 China

Запущен May 10, 1999 с Taiyuan Satellite Launch Center

Loading…

Ближайшие Пролёты (ближайшие 24 часа)

TLE

СвежийSource: Space-Track

Эпоха: Sep 14, 2026, 10:01 UTC

1 30574U 99025ALQ 26257.41756648  .00001391  00000-0  11837-2 0  9993
2 30574  99.3289  61.1458 0215487 340.1120  19.1726 13.78954594975668

Отслеживайте FENGYUN 1C DEB в реальном времени с AllMySat

Download on the App Store